Torna al catalogo

ATLAS 5 CENTAUR R/B

AttivoHEO
NORAD 38094·ROCKET BODY·🇺🇸 United States

Lanciato Feb 24, 2012 da Cape Canaveral Space Force Station

Loading…

Prossimi Passaggi (prossime 24 ore)

TLE

AggiornatoSource: Space-Track

Epoca: Sep 13, 2026, 02:37 UTC

1 38094U 12009B   26256.10947785 -.00000140  00000-0  00000+0 0  9993
2 38094  18.7829 337.1233 6237204 329.7214 262.6871  2.11803787112592

Traccia ATLAS 5 CENTAUR R/B in tempo reale con AllMySat

Download on the App Store